Weather History for Trieste, Italy

Change the Weather History Date:

Wednesday, December 26, 2012

  Actual Average Record
Temperature  
Mean Temperature 50 °F -  
Max Temperature 52 °F 45 °F 59 °F (2013)
Min Temperature 46 °F 38 °F 28 °F (1996)
Degree Days  
Heating Degree Days 15    
Moisture  
Dew Point 47 °F    
Average Humidity 88    
Maximum Humidity 94    
Minimum Humidity 62    
Precipitation  
Precipitation 0.47 in 0.10 in - ()
Sea Level Pressure  
Sea Level Pressure 29.99 in    
Wind  
Wind Speed 2 mph ()    
Max Wind Speed 17 mph    
Max Gust Speed 33 mph    
Visibility 2.7 miles    
Events Rain    
Averages and records for this station are not official NWS values.
T = Trace of Precipitation, MM = Missing Value Source: Averaged Metar Reports

Daily Weather History Graph

Daily Weather History Graph

Search for Another Location

Airport:

Trip Planner

Search our weather history database for the weather conditions in past years. The results will help you decide how hot, cold, wet, or windy it might be!

Date:

Astronomy

Dec. 26, 2012 Rise Set
Actual Time 7:44 AM CET 4:26 PM CET
Civil Twilight 7:10 AM CET 5:01 PM CET
Nautical Twilight 6:32 AM CET 5:38 PM CET
Astronomical Twilight 5:56 AM CET 6:15 PM CET
Moon 3:08 PM CET (12/26) 5:52 AM CET (12/26)
Length of Visible Light 9h 50m
Length of Day
8h 41m
Waxing Gibbous, 97% of the Moon is Illuminated
Dec 26
Waxing Gibbous
Dec 28
Full
Jan 5
Last Quarter
Jan 11
New
Jan 19
First Quarter

Hourly Weather History & Observations

Time (CET) Temp. Windchill Dew Point Humidity Pressure Visibility Wind Dir Wind Speed Gust Speed Precip Events Conditions
12:55 AM 50.0 °F - 48.2 °F 94% 30.04 in 3.1 mi Calm Calm - N/A   Overcast
1:00 AM 50 °F - 48 °F 89% 30.06 in 2 mi Calm Calm - -   Mist
1:55 AM 50.0 °F - 48.2 °F 94% 30.04 in 3.1 mi Calm Calm - N/A   Overcast
2:55 AM 50.0 °F - 48.2 °F 94% 30.04 in 3.1 mi Calm Calm - N/A   Overcast
3:55 AM 50.0 °F - 48.2 °F 94% 30.01 in 3.1 mi Calm Calm - N/A   Overcast
4:55 AM 50.0 °F - 48.2 °F 94% 30.01 in 3.1 mi Calm Calm - N/A   Overcast
5:55 AM 51.8 °F - 50.0 °F 94% 29.98 in 3.1 mi ENE 1.2 mph - N/A   Overcast
6:55 AM 51.8 °F - 50.0 °F 94% 29.98 in 3.1 mi ENE 2.3 mph - N/A   Overcast
7:00 AM 51 °F - 49 °F 91% 29.99 in 2 mi ENE 2.3 mph - -   Mist
7:55 AM 51.8 °F - 50.0 °F 94% 29.98 in 3.7 mi Calm Calm - N/A   Mostly Cloudy
8:55 AM 51.8 °F - 50.0 °F 94% 29.98 in 3.7 mi Calm Calm - N/A   Mostly Cloudy
9:55 AM 51.8 °F - 50.0 °F 94% 29.98 in 3.7 mi Calm Calm - N/A   Mostly Cloudy
10:55 AM 51.8 °F - 50.0 °F 94% 29.98 in 2.5 mi Calm Calm - N/A   Scattered Clouds
11:55 AM 53.6 °F - 50.0 °F 88% 29.98 in 2.5 mi Calm Calm - N/A   Light Drizzle
12:55 PM 53.6 °F - 50.0 °F 88% 29.95 in 1.9 mi East 3.5 mph - N/A   Light Drizzle
1:00 PM 53 °F - 50 °F 87% 29.95 in 1 mi East 3.5 mph - - Rain Light Drizzle
1:55 PM 53.6 °F - 50.0 °F 88% 29.92 in 1.9 mi WNW 2.3 mph - N/A Rain Light Rain
2:55 PM 51.8 °F - 48.2 °F 88% 29.92 in 1.2 mi ESE 3.5 mph - N/A Rain Light Rain
3:55 PM 50.0 °F - 48.2 °F 94% 29.95 in 1.2 mi ENE 3.5 mph - N/A Rain Rain
4:55 PM 50.0 °F - 48.2 °F 94% 29.95 in 1.2 mi NNW 4.6 mph - N/A Rain Rain
5:55 PM 50.0 °F - 48.2 °F 94% 29.95 in 3.1 mi NW 5.8 mph - N/A   Light Drizzle
6:55 PM 48.2 °F - 46.4 °F 93% 29.95 in 3.1 mi SE 1.2 mph - N/A   Light Drizzle
7:00 PM 49 °F - 46 °F 86% 29.96 in 2 mi SE 1.2 mph - - Rain Light Drizzle
7:55 PM 48.2 °F - 44.6 °F 87% 30.01 in 3.1 mi WSW 4.6 mph - N/A   Light Drizzle
8:55 PM 50.0 °F - 39.2 °F 66% 30.01 in 6.2 mi ENE 17.3 mph 33.4 mph N/A   Partly Cloudy
9:55 PM 48.2 °F - 37.4 °F 66% 30.01 in - ENE 16.1 mph 29.9 mph N/A   Clear
10:55 PM 48.2 °F - 35.6 °F 62% 30.04 in - East 3.5 mph - N/A   Clear
11:55 PM 46.4 °F 42.4 °F 35.6 °F 66% 30.06 in - ENE 8.1 mph - N/A   Clear